Time,TemperatureF,DewpointF,PressureIn,WindDirection,WindDirectionDegrees,WindSpeedMPH,WindSpeedGustMPH,Humidity,HourlyPrecipIn,Conditions,Clouds,dailyrainin,SoftwareType,DateUTC
2013-10-15 00:00:00,59.0,53.8,29.81,NW,323,1.0,1.0,83,0.00,,,0.00,Wunderground v.1.15,2013-10-15 07:00:00,
2013-10-15 00:05:00,59.0,53.8,29.81,NW,323,1.0,1.0,83,0.00,,,0.00,Wunderground v.1.15,2013-10-15 07:05:00,
2013-10-15 00:10:00,59.0,53.8,29.81,NW,323,1.0,1.0,83,0.00,,,0.00,Wunderground v.1.15,2013-10-15 07:10:00,
2013-10-15 00:20:00,59.0,53.8,29.80,NW,323,1.0,1.0,83,0.00,,,0.00,Wunderground v.1.15,2013-10-15 07:20:00,
2013-10-15 00:25:00,59.0,53.8,29.80,NW,323,1.0,6.0,83,0.00,,,0.00,Wunderground v.1.15,2013-10-15 07:25:00,
2013-10-15 00:30:00,58.9,54.1,29.80,SE,138,3.0,3.0,84,0.00,,,0.00,Wunderground v.1.15,2013-10-15 07:30:00,
2013-10-15 00:40:00,58.9,54.1,29.81,SE,138,2.0,2.0,84,0.00,,,0.00,Wunderground v.1.15,2013-10-15 07:40:00,
2013-10-15 00:45:00,58.7,53.9,29.81,SE,138,2.0,2.0,84,0.00,,,0.00,Wunderground v.1.15,2013-10-15 07:45:00,
2013-10-15 00:50:00,58.6,53.5,29.81,SE,138,1.0,1.0,83,0.00,,,0.00,Wunderground v.1.15,2013-10-15 07:50:00,
2013-10-15 01:00:00,58.1,53.0,29.81,SE,138,0.0,0.0,83,0.00,,,0.00,Wunderground v.1.15,2013-10-15 08:00:00,
2013-10-15 01:05:00,58.0,52.9,29.81,SE,138,0.0,0.0,83,0.00,,,0.00,Wunderground v.1.15,2013-10-15 08:05:00,
2013-10-15 01:10:00,57.8,52.7,29.81,SE,138,0.0,0.0,83,0.00,,,0.00,Wunderground v.1.15,2013-10-15 08:10:00,
2013-10-15 01:20:00,57.4,52.3,29.81,SE,138,0.0,0.0,83,0.00,,,0.00,Wunderground v.1.15,2013-10-15 08:20:00,
2013-10-15 01:25:00,57.1,52.0,29.81,SE,138,0.0,0.0,83,0.00,,,0.00,Wunderground v.1.15,2013-10-15 08:25:00,
2013-10-15 01:35:00,56.9,52.1,29.81,SE,138,0.0,0.0,84,0.00,,,0.00,Wunderground v.1.15,2013-10-15 08:35:00,
2013-10-15 01:40:00,56.8,52.0,29.81,SE,138,0.0,0.0,84,0.00,,,0.00,Wunderground v.1.15,2013-10-15 08:40:00,
2013-10-15 01:55:00,56.5,52.0,29.80,SE,138,0.0,0.0,85,0.00,,,0.00,Wunderground v.1.15,2013-10-15 08:55:00,
2013-10-15 02:10:00,56.0,51.6,29.80,SE,138,0.0,0.0,85,0.00,,,0.00,Wunderground v.1.15,2013-10-15 09:10:00,
2013-10-15 02:15:00,55.8,51.4,29.80,SE,138,0.0,0.0,85,0.00,,,0.00,Wunderground v.1.15,2013-10-15 09:15:00,
2013-10-15 02:20:00,55.7,51.6,29.80,SE,138,0.0,0.0,86,0.00,,,0.00,Wunderground v.1.15,2013-10-15 09:20:00,
2013-10-15 02:30:00,55.5,51.4,29.80,SE,138,0.0,0.0,86,0.00,,,0.00,Wunderground v.1.15,2013-10-15 09:30:00,
2013-10-15 02:35:00,55.4,51.3,29.80,SE,138,0.0,0.0,86,0.00,,,0.00,Wunderground v.1.15,2013-10-15 09:35:00,
2013-10-15 02:50:00,55.1,51.3,29.79,SE,138,0.0,0.0,87,0.00,,,0.00,Wunderground v.1.15,2013-10-15 09:50:00,
2013-10-15 02:55:00,55.0,51.2,29.79,SE,138,0.0,0.0,87,0.00,,,0.00,Wunderground v.1.15,2013-10-15 09:55:00,
2013-10-15 03:05:00,54.8,51.0,29.78,SE,138,0.0,0.0,87,0.00,,,0.00,Wunderground v.1.15,2013-10-15 10:05:00,
2013-10-15 03:20:00,54.8,51.3,29.78,SE,138,1.0,1.0,88,0.00,,,0.00,Wunderground v.1.15,2013-10-15 10:20:00,
2013-10-15 03:25:00,54.8,51.3,29.78,SE,138,1.0,1.0,88,0.00,,,0.00,Wunderground v.1.15,2013-10-15 10:25:00,
2013-10-15 03:35:00,54.8,51.3,29.78,SE,138,0.0,0.0,88,0.00,,,0.00,Wunderground v.1.15,2013-10-15 10:35:00,
2013-10-15 03:45:00,54.5,51.0,29.78,SE,138,0.0,0.0,88,0.00,,,0.00,Wunderground v.1.15,2013-10-15 10:45:00,
2013-10-15 03:55:00,54.2,50.7,29.78,SE,138,0.0,0.0,88,0.00,,,0.00,Wunderground v.1.15,2013-10-15 10:55:00,
2013-10-15 04:00:00,54.1,50.6,29.78,SE,138,0.0,0.0,88,0.00,,,0.00,Wunderground v.1.15,2013-10-15 11:00:00,
2013-10-15 04:10:00,53.9,50.7,29.78,SE,138,0.0,0.0,89,0.00,,,0.00,Wunderground v.1.15,2013-10-15 11:10:00,
2013-10-15 04:20:00,53.8,50.6,29.78,SE,138,0.0,0.0,89,0.00,,,0.00,Wunderground v.1.15,2013-10-15 11:20:00,
2013-10-15 04:30:00,53.3,50.1,29.78,SE,138,0.0,0.0,89,0.00,,,0.00,Wunderground v.1.15,2013-10-15 11:30:00,
2013-10-15 04:45:00,53.0,49.8,29.78,SE,138,0.0,0.0,89,0.00,,,0.00,Wunderground v.1.15,2013-10-15 11:45:00,
2013-10-15 04:50:00,53.0,49.8,29.78,SE,138,0.0,0.0,89,0.00,,,0.00,Wunderground v.1.15,2013-10-15 11:50:00,
2013-10-15 04:55:00,53.0,49.8,29.78,SE,138,0.0,0.0,89,0.00,,,0.00,Wunderground v.1.15,2013-10-15 11:55:00,
2013-10-15 05:05:00,53.3,50.4,29.78,SE,138,0.0,0.0,90,0.00,,,0.00,Wunderground v.1.15,2013-10-15 12:05:00,
2013-10-15 05:10:00,53.3,50.4,29.78,SE,138,0.0,0.0,90,0.00,,,0.00,Wunderground v.1.15,2013-10-15 12:10:00,
2013-10-15 05:21:00,53.2,50.3,29.78,SE,138,0.0,0.0,90,0.00,,,0.00,Wunderground v.1.15,2013-10-15 12:21:00,
2013-10-15 05:25:00,53.0,50.1,29.78,SE,138,0.0,0.0,90,0.00,,,0.00,Wunderground v.1.15,2013-10-15 12:25:00,
2013-10-15 05:30:00,53.0,50.1,29.78,SE,138,0.0,0.0,90,0.00,,,0.00,Wunderground v.1.15,2013-10-15 12:30:00,
2013-10-15 05:40:00,52.9,50.0,29.78,SE,138,0.0,0.0,90,0.00,,,0.00,Wunderground v.1.15,2013-10-15 12:40:00,
2013-10-15 05:45:00,52.9,50.0,29.78,SE,138,0.0,0.0,90,0.00,,,0.00,Wunderground v.1.15,2013-10-15 12:45:00,
2013-10-15 05:56:00,52.9,50.3,29.78,SE,138,0.0,0.0,91,0.00,,,0.00,Wunderground v.1.15,2013-10-15 12:56:00,
2013-10-15 06:00:00,52.9,50.0,29.78,SE,138,0.0,0.0,90,0.00,,,0.00,Wunderground v.1.15,2013-10-15 13:00:00,
2013-10-15 06:05:00,52.9,50.3,29.78,SE,138,0.0,1.0,91,0.00,,,0.00,Wunderground v.1.15,2013-10-15 13:05:00,
2013-10-15 06:16:00,52.9,50.3,29.78,SE,138,1.0,1.0,91,0.00,,,0.00,Wunderground v.1.15,2013-10-15 13:16:00,
2013-10-15 06:20:00,52.7,49.8,29.78,SE,138,0.0,1.0,90,0.00,,,0.00,Wunderground v.1.15,2013-10-15 13:20:00,
2013-10-15 06:35:00,52.6,50.0,29.79,SE,138,0.0,0.0,91,0.00,,,0.00,Wunderground v.1.15,2013-10-15 13:35:00,
2013-10-15 06:40:00,52.6,50.0,29.79,SE,138,1.0,1.0,91,0.00,,,0.00,Wunderground v.1.15,2013-10-15 13:40:00,
2013-10-15 06:45:00,52.4,49.8,29.79,SE,138,1.0,1.0,91,0.00,,,0.00,Wunderground v.1.15,2013-10-15 13:45:00,
2013-10-15 06:55:00,52.1,49.3,29.80,SE,138,1.0,1.0,90,0.00,,,0.00,Wunderground v.1.15,2013-10-15 13:55:00,
2013-10-15 07:00:00,51.8,49.0,29.80,SE,138,1.0,1.0,90,0.00,,,0.00,Wunderground v.1.15,2013-10-15 14:00:00,
2013-10-15 07:05:00,51.7,48.6,29.80,SE,138,0.0,1.0,89,0.00,,,0.00,Wunderground v.1.15,2013-10-15 14:05:00,
2013-10-15 07:15:00,51.3,48.2,29.80,SE,138,0.0,0.0,89,0.00,,,0.00,Wunderground v.1.15,2013-10-15 14:15:00,
2013-10-15 07:20:00,51.3,48.2,29.80,SE,138,0.0,1.0,89,0.00,,,0.00,Wunderground v.1.15,2013-10-15 14:20:00,
2013-10-15 07:31:00,51.7,48.3,29.80,SE,138,0.0,0.0,88,0.00,,,0.00,Wunderground v.1.15,2013-10-15 14:31:00,
2013-10-15 07:35:00,51.7,48.3,29.80,SE,138,0.0,0.0,88,0.00,,,0.00,Wunderground v.1.15,2013-10-15 14:35:00,
2013-10-15 07:40:00,52.0,48.3,29.80,SE,138,0.0,0.0,87,0.00,,,0.00,Wunderground v.1.15,2013-10-15 14:40:00,
2013-10-15 07:51:00,53.0,48.3,29.81,SE,138,2.0,2.0,84,0.00,,,0.00,Wunderground v.1.15,2013-10-15 14:51:00,
2013-10-15 07:55:00,53.5,47.5,29.81,North,354,2.0,2.0,80,0.00,,,0.00,Wunderground v.1.15,2013-10-15 14:55:00,
2013-10-15 08:00:00,53.9,46.9,29.81,North,352,2.0,2.0,77,0.00,,,0.00,Wunderground v.1.15,2013-10-15 15:00:00,
2013-10-15 08:15:00,56.3,45.5,29.81,NNW,342,2.0,2.0,67,0.00,,,0.00,Wunderground v.1.15,2013-10-15 15:15:00,
2013-10-15 08:20:00,57.2,45.9,29.81,NNW,342,1.0,2.0,66,0.00,,,0.00,Wunderground v.1.15,2013-10-15 15:20:00,
2013-10-15 08:25:00,58.1,45.6,29.81,NNW,342,1.0,1.0,63,0.00,,,0.00,Wunderground v.1.15,2013-10-15 15:25:00,
2013-10-15 08:35:00,59.8,45.0,29.82,NNW,342,2.0,3.0,58,0.00,,,0.00,Wunderground v.1.15,2013-10-15 15:35:00,
2013-10-15 08:40:00,60.8,44.5,29.82,NNW,342,2.0,3.0,55,0.00,,,0.00,Wunderground v.1.15,2013-10-15 15:40:00,
2013-10-15 08:55:00,63.5,44.0,29.82,NNW,340,2.0,2.0,49,0.00,,,0.00,Wunderground v.1.15,2013-10-15 15:55:00,
2013-10-15 09:00:00,64.6,45.5,29.82,NNW,340,1.0,1.0,50,0.00,,,0.00,Wunderground v.1.15,2013-10-15 16:00:00,
2013-10-15 09:11:00,66.9,44.3,29.82,NNW,340,2.0,2.0,44,0.00,,,0.00,Wunderground v.1.15,2013-10-15 16:11:00,
2013-10-15 09:15:00,67.9,45.2,29.82,NNW,340,2.0,2.0,44,0.00,,,0.00,Wunderground v.1.15,2013-10-15 16:15:00,
2013-10-15 09:31:00,71.0,44.1,29.82,NNW,340,1.0,1.0,38,0.00,,,0.00,Wunderground v.1.15,2013-10-15 16:31:00,
2013-10-15 09:35:00,71.7,43.3,29.82,NNW,340,1.0,1.0,36,0.00,,,0.00,Wunderground v.1.15,2013-10-15 16:35:00,
2013-10-15 09:55:00,74.5,42.7,29.82,NNW,342,1.0,2.0,32,0.00,,,0.00,Wunderground v.1.15,2013-10-15 16:55:00,
2013-10-15 10:00:00,75.0,42.3,29.82,NNW,342,2.0,3.0,31,0.00,,,0.00,Wunderground v.1.15,2013-10-15 17:00:00,
2013-10-15 10:15:00,77.0,41.4,29.82,NNW,346,2.0,3.0,28,0.00,,,0.00,Wunderground v.1.15,2013-10-15 17:15:00,
2013-10-15 10:20:00,77.5,41.8,29.82,NNW,347,2.0,3.0,28,0.00,,,0.00,Wunderground v.1.15,2013-10-15 17:20:00,
2013-10-15 10:35:00,79.6,40.7,29.82,North,354,2.0,2.0,25,0.00,,,0.00,Wunderground v.1.15,2013-10-15 17:35:00,
2013-10-15 10:40:00,80.3,39.1,29.82,NE,41,2.0,3.0,23,0.00,,,0.00,Wunderground v.1.15,2013-10-15 17:40:00,
2013-10-15 10:50:00,81.7,35.4,29.82,NNE,16,1.0,1.0,19,0.00,,,0.00,Wunderground v.1.15,2013-10-15 17:50:00,
2013-10-15 10:55:00,81.9,34.2,29.82,North,0,1.0,1.0,18,0.00,,,0.00,Wunderground v.1.15,2013-10-15 17:55:00,
2013-10-15 11:10:00,82.8,34.9,29.81,NW,325,1.0,5.0,18,0.00,,,0.00,Wunderground v.1.15,2013-10-15 18:10:00,
2013-10-15 11:25:00,83.2,33.8,29.81,NW,322,2.0,2.0,17,0.00,,,0.00,Wunderground v.1.15,2013-10-15 18:25:00,
2013-10-15 11:35:00,84.2,36.1,29.81,North,350,2.0,2.0,18,0.00,,,0.00,Wunderground v.1.15,2013-10-15 18:35:00,
2013-10-15 11:40:00,84.6,36.4,29.81,North,357,3.0,3.0,18,0.00,,,0.00,Wunderground v.1.15,2013-10-15 18:40:00,
2013-10-15 11:50:00,84.8,36.6,29.80,NNW,340,3.0,5.0,18,0.00,,,0.00,Wunderground v.1.15,2013-10-15 18:50:00,
2013-10-15 11:55:00,85.2,36.9,29.80,NNW,343,3.0,3.0,18,0.00,,,0.00,Wunderground v.1.15,2013-10-15 18:55:00,
2013-10-15 12:05:00,85.7,35.9,29.79,North,0,1.0,3.0,17,0.00,,,0.00,Wunderground v.1.15,2013-10-15 19:05:00,
2013-10-15 12:10:00,85.9,34.5,29.79,North,0,2.0,3.0,16,0.00,,,0.00,Wunderground v.1.15,2013-10-15 19:10:00,
2013-10-15 12:15:00,85.9,34.5,29.79,NW,319,3.0,3.0,16,0.00,,,0.00,Wunderground v.1.15,2013-10-15 19:15:00,
2013-10-15 12:20:00,86.1,34.7,29.78,ENE,72,2.0,3.0,16,0.00,,,0.00,Wunderground v.1.15,2013-10-15 19:20:00,
2013-10-15 12:31:00,86.3,34.8,29.78,NNW,329,2.0,2.0,16,0.00,,,0.00,Wunderground v.1.15,2013-10-15 19:31:00,
2013-10-15 12:35:00,86.5,44.3,29.78,South,174,2.0,5.0,23,0.00,,,0.00,Wunderground v.1.15,2013-10-15 19:35:00,
2013-10-15 12:40:00,86.1,48.2,29.78,South,184,3.0,5.0,27,0.00,,,0.00,Wunderground v.1.15,2013-10-15 19:40:00,
2013-10-15 12:55:00,83.0,47.5,29.77,SSW,202,5.0,7.0,29,0.00,,,0.00,Wunderground v.1.15,2013-10-15 19:55:00,
2013-10-15 13:00:00,83.2,48.5,29.77,South,189,4.0,4.0,30,0.00,,,0.00,Wunderground v.1.15,2013-10-15 20:00:00,
2013-10-15 13:05:00,84.0,51.0,29.77,South,172,4.0,7.0,32,0.00,,,0.00,Wunderground v.1.15,2013-10-15 20:05:00,
2013-10-15 13:10:00,83.8,53.2,29.77,SSW,213,5.0,5.0,35,0.00,,,0.00,Wunderground v.1.15,2013-10-15 20:10:00,
2013-10-15 13:25:00,80.3,47.7,29.77,SSW,192,6.0,6.0,32,0.00,,,0.00,Wunderground v.1.15,2013-10-15 20:25:00,
2013-10-15 13:30:00,80.9,47.4,29.77,SW,217,7.0,7.0,31,0.00,,,0.00,Wunderground v.1.15,2013-10-15 20:30:00,
2013-10-15 13:35:00,80.7,48.1,29.76,SW,219,6.0,6.0,32,0.00,,,0.00,Wunderground v.1.15,2013-10-15 20:35:00,
2013-10-15 13:45:00,82.1,42.8,29.75,SW,230,5.0,5.0,25,0.00,,,0.00,Wunderground v.1.15,2013-10-15 20:45:00,
2013-10-15 13:50:00,83.0,42.5,29.75,SSW,208,5.0,5.0,24,0.00,,,0.00,Wunderground v.1.15,2013-10-15 20:50:00,
2013-10-15 14:00:00,83.4,41.7,29.75,SSW,203,6.0,8.0,23,0.00,,,0.00,Wunderground v.1.15,2013-10-15 21:00:00,
2013-10-15 14:11:00,83.2,39.2,29.75,SW,219,7.0,12.0,21,0.00,,,0.00,Wunderground v.1.15,2013-10-15 21:11:00,
2013-10-15 14:20:00,82.8,38.9,29.75,SW,219,8.0,12.0,21,0.00,,,0.00,Wunderground v.1.15,2013-10-15 21:20:00,
2013-10-15 14:25:00,83.4,38.1,29.75,SW,227,6.0,6.0,20,0.00,,,0.00,Wunderground v.1.15,2013-10-15 21:25:00,
2013-10-15 14:36:00,84.0,37.3,29.74,SW,227,6.0,8.0,19,0.00,,,0.00,Wunderground v.1.15,2013-10-15 21:36:00,
2013-10-15 14:40:00,83.6,37.0,29.74,SSW,206,8.0,8.0,19,0.00,,,0.00,Wunderground v.1.15,2013-10-15 21:40:00,
2013-10-15 14:45:00,83.4,36.8,29.74,SW,232,8.0,9.0,19,0.00,,,0.00,Wunderground v.1.15,2013-10-15 21:45:00,
2013-10-15 14:50:00,83.2,37.9,29.74,WSW,240,7.0,7.0,20,0.00,,,0.00,Wunderground v.1.15,2013-10-15 21:50:00,
2013-10-15 15:00:00,83.0,35.1,29.74,WSW,243,8.0,8.0,18,0.00,,,0.00,Wunderground v.1.15,2013-10-15 22:00:00,
2013-10-15 15:05:00,83.2,36.6,29.74,WSW,250,8.0,8.0,19,0.00,,,0.00,Wunderground v.1.15,2013-10-15 22:05:00,
2013-10-15 15:10:00,83.6,35.6,29.74,SW,234,7.0,10.0,18,0.00,,,0.00,Wunderground v.1.15,2013-10-15 22:10:00,
2013-10-15 15:25:00,84.0,35.9,29.73,SW,217,7.0,10.0,18,0.00,,,0.00,Wunderground v.1.15,2013-10-15 22:25:00,
2013-10-15 15:30:00,84.2,37.5,29.73,SW,222,6.0,10.0,19,0.00,,,0.00,Wunderground v.1.15,2013-10-15 22:30:00,
2013-10-15 15:45:00,83.6,37.0,29.73,SW,229,8.0,8.0,19,0.00,,,0.00,Wunderground v.1.15,2013-10-15 22:45:00,
2013-10-15 15:50:00,83.4,36.8,29.73,SW,217,8.0,8.0,19,0.00,,,0.00,Wunderground v.1.15,2013-10-15 22:50:00,
2013-10-15 15:55:00,83.8,38.4,29.73,SW,220,7.0,7.0,20,0.00,,,0.00,Wunderground v.1.15,2013-10-15 22:55:00,
2013-10-15 16:06:00,84.4,37.6,29.73,West,263,6.0,6.0,19,0.00,,,0.00,Wunderground v.1.15,2013-10-15 23:06:00,
2013-10-15 16:10:00,84.8,35.1,29.73,WNW,294,5.0,6.0,17,0.00,,,0.00,Wunderground v.1.15,2013-10-15 23:10:00,
2013-10-15 16:15:00,85.5,37.1,29.73,NW,316,4.0,6.0,18,0.00,,,0.00,Wunderground v.1.15,2013-10-15 23:15:00,
2013-10-15 16:20:00,85.2,36.9,29.73,WNW,299,4.0,7.0,18,0.00,,,0.00,Wunderground v.1.15,2013-10-15 23:20:00,
2013-10-15 16:35:00,84.8,36.6,29.73,NW,312,5.0,7.0,18,0.00,,,0.00,Wunderground v.1.15,2013-10-15 23:35:00,
2013-10-15 16:40:00,84.4,36.2,29.73,NW,311,6.0,7.0,18,0.00,,,0.00,Wunderground v.1.15,2013-10-15 23:40:00,
2013-10-15 16:45:00,83.8,35.8,29.73,WNW,296,6.0,6.0,18,0.00,,,0.00,Wunderground v.1.15,2013-10-15 23:45:00,
2013-10-15 16:56:00,83.6,35.6,29.73,NNW,328,5.0,5.0,18,0.00,,,0.00,Wunderground v.1.15,2013-10-15 23:56:00,
2013-10-15 17:00:00,83.4,35.4,29.73,WNW,292,5.0,6.0,18,0.00,,,0.00,Wunderground v.1.15,2013-10-16 00:00:00,
2013-10-15 17:05:00,83.2,36.6,29.74,West,271,5.0,6.0,19,0.00,,,0.00,Wunderground v.1.15,2013-10-16 00:05:00,
2013-10-15 17:10:00,82.8,36.3,29.74,WNW,302,5.0,5.0,19,0.00,,,0.00,Wunderground v.1.15,2013-10-16 00:10:00,
2013-10-15 17:21:00,82.1,38.3,29.74,NW,318,4.0,6.0,21,0.00,,,0.00,Wunderground v.1.15,2013-10-16 00:21:00,
2013-10-15 17:25:00,81.7,38.0,29.74,West,278,5.0,6.0,21,0.00,,,0.00,Wunderground v.1.15,2013-10-16 00:25:00,
2013-10-15 17:30:00,81.3,37.6,29.74,WNW,294,5.0,6.0,21,0.00,,,0.00,Wunderground v.1.15,2013-10-16 00:30:00,
2013-10-15 17:35:00,81.1,38.6,29.74,WNW,288,4.0,6.0,22,0.00,,,0.00,Wunderground v.1.15,2013-10-16 00:35:00,
2013-10-15 17:50:00,79.6,40.7,29.75,NW,313,3.0,3.0,25,0.00,,,0.00,Wunderground v.1.15,2013-10-16 00:50:00,
2013-10-15 17:55:00,79.2,41.3,29.75,NW,313,2.0,4.0,26,0.00,,,0.00,Wunderground v.1.15,2013-10-16 00:55:00,
2013-10-15 18:00:00,78.8,42.0,29.75,NW,313,2.0,2.0,27,0.00,,,0.00,Wunderground v.1.15,2013-10-16 01:00:00,
2013-10-15 18:15:00,76.2,42.5,29.75,WNW,295,4.0,4.0,30,0.00,,,0.00,Wunderground v.1.15,2013-10-16 01:15:00,
2013-10-15 18:20:00,75.5,42.7,29.76,NW,309,3.0,4.0,31,0.00,,,0.00,Wunderground v.1.15,2013-10-16 01:20:00,
2013-10-15 18:35:00,74.1,42.3,29.77,NW,308,2.0,2.0,32,0.00,,,0.00,Wunderground v.1.15,2013-10-16 01:35:00,
2013-10-15 18:55:00,72.7,43.5,29.77,NW,308,1.0,1.0,35,0.00,,,0.00,Wunderground v.1.15,2013-10-16 01:55:00,
2013-10-15 19:00:00,72.5,43.3,29.77,NW,308,1.0,1.0,35,0.00,,,0.00,Wunderground v.1.15,2013-10-16 02:00:00,
2013-10-15 19:15:00,71.5,43.1,29.78,NW,308,2.0,2.0,36,0.00,,,0.00,Wunderground v.1.15,2013-10-16 02:15:00,
2013-10-15 19:20:00,71.3,43.0,29.79,NW,308,1.0,2.0,36,0.00,,,0.00,Wunderground v.1.15,2013-10-16 02:20:00,
2013-10-15 19:30:00,70.8,42.5,29.79,NW,308,2.0,4.0,36,0.00,,,0.00,Wunderground v.1.15,2013-10-16 02:30:00,
2013-10-15 19:35:00,70.6,42.3,29.79,NW,306,3.0,6.0,36,0.00,,,0.00,Wunderground v.1.15,2013-10-16 02:35:00,
2013-10-15 19:40:00,70.5,42.2,29.79,NW,308,3.0,3.0,36,0.00,,,0.00,Wunderground v.1.15,2013-10-16 02:40:00,
2013-10-15 19:50:00,70.1,42.6,29.80,NW,308,1.0,1.0,37,0.00,,,0.00,Wunderground v.1.15,2013-10-16 02:50:00,
2013-10-15 19:55:00,70.0,43.9,29.80,NW,308,0.0,1.0,39,0.00,,,0.00,Wunderground v.1.15,2013-10-16 02:55:00,
2013-10-15 20:00:00,69.6,43.5,29.80,NW,308,1.0,1.0,39,0.00,,,0.00,Wunderground v.1.15,2013-10-16 03:00:00,
2013-10-15 20:10:00,68.9,44.9,29.80,NW,308,0.0,0.0,42,0.00,,,0.00,Wunderground v.1.15,2013-10-16 03:10:00,
2013-10-15 20:15:00,68.6,45.2,29.80,NW,308,0.0,0.0,43,0.00,,,0.00,Wunderground v.1.15,2013-10-16 03:15:00,
2013-10-15 20:25:00,67.9,45.2,29.81,NW,308,0.0,0.0,44,0.00,,,0.00,Wunderground v.1.15,2013-10-16 03:25:00,
2013-10-15 20:30:00,67.4,44.7,29.81,NW,308,0.0,0.0,44,0.00,,,0.00,Wunderground v.1.15,2013-10-16 03:30:00,
2013-10-15 20:45:00,66.3,44.3,29.81,NW,308,0.0,0.0,45,0.00,,,0.00,Wunderground v.1.15,2013-10-16 03:45:00,
2013-10-15 21:00:00,65.4,43.5,29.82,NW,308,0.0,0.0,45,0.00,,,0.00,Wunderground v.1.15,2013-10-16 04:00:00,
2013-10-15 21:05:00,65.4,42.9,29.82,NW,308,0.0,0.0,44,0.00,,,0.00,Wunderground v.1.15,2013-10-16 04:05:00,
2013-10-15 21:15:00,65.4,43.5,29.82,NW,308,0.0,0.0,45,0.00,,,0.00,Wunderground v.1.15,2013-10-16 04:15:00,
2013-10-15 21:20:00,65.3,43.4,29.82,NW,308,0.0,0.0,45,0.00,,,0.00,Wunderground v.1.15,2013-10-16 04:20:00,
2013-10-15 21:25:00,64.9,44.2,29.82,NW,308,0.0,2.0,47,0.00,,,0.00,Wunderground v.1.15,2013-10-16 04:25:00,
2013-10-15 21:35:00,64.5,44.4,29.83,NW,308,0.0,0.0,48,0.00,,,0.00,Wunderground v.1.15,2013-10-16 04:35:00,
2013-10-15 21:40:00,64.3,44.7,29.83,NW,308,0.0,0.0,49,0.00,,,0.00,Wunderground v.1.15,2013-10-16 04:40:00,
2013-10-15 21:55:00,63.7,44.7,29.83,NW,308,0.0,0.0,50,0.00,,,0.00,Wunderground v.1.15,2013-10-16 04:55:00,
2013-10-15 22:00:00,63.3,44.3,29.83,NW,308,0.0,0.0,50,0.00,,,0.00,Wunderground v.1.15,2013-10-16 05:00:00,
2013-10-15 22:11:00,63.0,44.1,29.83,NW,308,0.0,0.0,50,0.00,,,0.00,Wunderground v.1.15,2013-10-16 05:11:00,
2013-10-15 22:15:00,62.8,44.4,29.83,NW,308,0.0,0.0,51,0.00,,,0.00,Wunderground v.1.15,2013-10-16 05:15:00,
2013-10-15 22:20:00,62.4,44.5,29.83,NW,308,0.0,1.0,52,0.00,,,0.00,Wunderground v.1.15,2013-10-16 05:20:00,
2013-10-15 22:31:00,61.9,45.1,29.83,NW,308,1.0,2.0,54,0.00,,,0.00,Wunderground v.1.15,2013-10-16 05:31:00,
2013-10-15 22:40:00,61.7,44.9,29.83,NW,308,1.0,1.0,54,0.00,,,0.00,Wunderground v.1.15,2013-10-16 05:40:00,
2013-10-15 22:51:00,61.2,44.9,29.83,NW,308,0.0,0.0,55,0.00,,,0.00,Wunderground v.1.15,2013-10-16 05:51:00,
2013-10-15 22:55:00,61.2,45.4,29.83,NW,308,0.0,1.0,56,0.00,,,0.00,Wunderground v.1.15,2013-10-16 05:55:00,
2013-10-15 23:05:00,61.1,44.8,29.83,NW,308,1.0,1.0,55,0.00,,,0.00,Wunderground v.1.15,2013-10-16 06:05:00,
2013-10-15 23:15:00,60.9,44.6,29.83,NW,308,1.0,2.0,55,0.00,,,0.00,Wunderground v.1.15,2013-10-16 06:15:00,
2013-10-15 23:25:00,60.6,44.8,29.84,NW,308,1.0,1.0,56,0.00,,,0.00,Wunderground v.1.15,2013-10-16 06:25:00,
2013-10-15 23:35:00,60.3,45.0,29.84,NW,308,1.0,1.0,57,0.00,,,0.00,Wunderground v.1.15,2013-10-16 06:35:00,
2013-10-15 23:40:00,60.3,45.0,29.84,NW,308,0.0,1.0,57,0.00,,,0.00,Wunderground v.1.15,2013-10-16 06:40:00,
2013-10-15 23:45:00,60.0,45.2,29.84,NW,308,0.0,0.0,58,0.00,,,0.00,Wunderground v.1.15,2013-10-16 06:45:00,
2013-10-15 23:56:00,59.5,45.2,29.84,North,0,1.0,1.0,59,0.00,,,0.00,Wunderground v.1.15,2013-10-16 06:56:00,